Regional Weather Roundup
Issued by NWS Newport/Morehead, NC

Current Version | Previous Version | Graphics & Text | Print | Product List | Glossary Off
Versions: 1 2 3 4 5 6 7 8 9 10 11 12 13 14 15 16 17 18 19 20 21 22 23 24 25 26 27 28 29 30 31 32 33 34 35 36 37 38 39 40 41 42 43 44 45 46 47 48 49 50

000
ASUS42 KMHX 040025
RWRMHX
WEATHER ROUNDUP FOR EASTERN NORTH CAROLINA
NATIONAL WEATHER SERVICE NEWPORT/MOREHEAD CITY NC
800 PM EDT THU SEP 03 2015

NOTE: "FAIR" INDICATES FEW OR NO CLOUDS BELOW 12,000 FEET
WITH NO SIGNIFICANT WEATHER AND/OR OBSTRUCTIONS TO VISIBILITY

NCZ015>017-031-032-045>047-102-103-040100-
NORTH COAST

CITY           SKY/WX    TMP DP  RH WIND       PRES   REMARKS
EDENTON        PTCLDY    78  73  85 CALM      29.87R
ELIZABETH CITY PTCLDY    75  70  84 CALM      29.87R
KITTY HAWK     PTCLDY    79  71  75 CALM      29.86S
MANTEO         PTCLDY    81  73  76 S9        29.87S

$$

NCZ045>047-081-094-103-104-040100-
CENTRAL COAST

CITY           SKY/WX    TMP DP  RH WIND       PRES   REMARKS
FRISCO         PTCLDY    78  71  79 W5        29.88S
SWANQUARTER      N/A     81 N/A N/A SW3       29.82S

$$

NCZ095-097-098-100-101-040100-
SOUTHERN COAST

CITY           SKY/WX    TMP DP  RH WIND       PRES   REMARKS
BEAUFORT       MOCLDY    79  76  90 SW5       29.88S
CEDAR ISLAND     N/A     79 N/A N/A S2        29.91S
JACKSONVILLE   MOCLDY    79  71  76 S3        29.88R
PINEY ISLAND   PTCLDY   N/A N/A N/A S5        29.88S
WILMINGTON     CLOUDY    76  69  79 SW5       29.89R


$$

NCZ011>013-027>030-043-044-078>080-089-090>093-098-040100-
COASTAL PLAIN

CITY           SKY/WX    TMP DP  RH WIND       PRES   REMARKS
AHOSKIE        PTCLDY    76  73  90 CALM      29.88R
CLINTON        PTCLDY    79  70  74 CALM      29.88S
ELIZABETHTOWN  PTCLDY    79  71  76 CALM      29.88S
GOLDSBORO      CLEAR     80  73  79 CALM      29.86F
GREENVILLE     CLEAR     77  73  88 CALM      29.90S
HAVELOCK       MOCLDY    79  74  84 SW5       29.89R
KENANSVILLE      N/A     75  72  91 CALM      29.89S
KINSTON        CLEAR     79  73  83 CALM      29.89S
NEW BERN       PTCLDY    78  72  81 CALM      29.89R
RICHLANDS      PTCLDY    79  70  73 SW3       29.88S
ROCKY MOUNT    PTCLDY    79  70  74 SE3       29.88R
WASHINGTON     PTCLDY    76  72  85 CALM      29.88R
WHITEVILLE     PTCLDY    77  69  77 S3        29.88S

$$

AMZ130-135-150-152-154-156-158-170-250-252-270-ANZ085-086-088-633-658-670-040100-
MARINE OBSERVATIONS

STATION/POSITION TIME  TEMP    WIND        PRES    WAVE   SWELL
                       AIR SEA DIR/SP/G            HT/PER HT/PER
                 (UTC) (F)     (DEG/KT/KT) (MB)    (FT/S) (FT/S)
CHESAPEAKE LIGHT 0000   81     190/  5/  5 1011.9
64 E VA BEACH    2350   79 79  260/  6/  8 1010.8    1/ 8   2/ 8
DUCK             0000   81 81  160/  6/  7 1010.6
2 E DUCK         2311      81                N/A     1/13
OREGON INLET     0000   81 83  190/  7/  8 1011.4
13E OREGON INLT  0000      82                N/A     1/13
HATTERAS CG      0000   80 84  230/  5/  8 1011.6
DIAMOND BUOY     2350   81 86  270/  4/  6 1011.9    1/12   2/12
CAPE LOOKOUT     0000   80     240/  4/  4 1011.7
BEAUFORT LAB     0000   80 83  220/  3/  5 1011.3
30 SE NEW RVR IN 2308   81 82  260/  6/  8 1012.1
30 SE NEW RVR IN 2325      82                N/A     2/ 7
27 SE WRIGHTSVLE 0000   78 82  260/ 10/ 12   N/A
5 SE WRIGHTSVLE  2308   78 82  250/  6/ 10 1011.9
225 S CAPE HAT   2350   83 84  310/  6/  8 1012.2    2/ 9   2/ 9
41 SE CHARLESTON 2350   81 84  170/  6/  8 1012.0    2/ 8   2/ 8

$$


USA.gov is the U.S. government's official web portal to all federal, state and local government web resources and services.